Location: Linsted
(51.3000°N, 0.7833°E)
Time: 13:38:01
(UTC+00:00)

Daily predictions for brighter satellites

Satellite Brightness Start Highest point End
(mag) Time Altitude Azimuth Time Altitude Azimuth Time Altitude Azimuth
Cosmos 1110 Rocket 4.1 18:02:20 10° SSW 18:07:40 79° ESE 18:13:01 10° NNE
Cosmos 1743 Rocket 4.1 18:03:58 10° SSW 18:08:19 65° WNW 18:12:45 10° N
Cosmos 2227 4.3 18:02:52 10° NNW 18:08:41 89° WSW 18:14:27 10° SSE
Okean O Rocket 3.2 18:04:42 10° S 18:08:48 41° W 18:12:57 10° NNW
CZ-4 R/B 1.3 18:05:24 10° SSE 18:09:11 57° ENE 18:13:02 10° N
Okean 1 4.1 18:05:57 10° N 18:09:34 30° ENE 18:13:08 10° SE
Cosmos 1697 Rocket 3.4 18:04:55 10° SW 18:10:30 59° NW 18:16:07 10° NNE
Cosmos 2084 Rocket 3.9 18:08:17 10° NW 18:12:25 47° NE 18:16:43 10° ESE
FALCON 9 DEB 3.2 18:09:48 10° WNW 18:13:14 68° N 18:16:39 10° E
Cosmos 220 Rocket 4.0 18:09:07 10° SSW 18:13:22 89° NW 18:17:40 10° NNE
USA 307 2.9 18:12:43 10° WSW 18:17:01 84° SSE 18:21:19 10° ENE
CZ-2C R/B 3.7 18:14:20 10° S 18:20:04 69° WSW 18:25:36 10° NNW
FALCON 9 DEB 2.9 18:17:06 10° WSW 18:20:17 83° N 18:23:25 10° ENE
USA 306 2.9 18:16:59 10° WSW 18:21:16 88° SSE 18:25:33 10° ENE
Ariane Rocket 4.3 18:17:45 10° ESE 18:21:25 20° NE 18:25:05 10° N
Gbstr 26 Del rocket 3.4 18:18:02 10° WSW 18:22:18 63° SSE 18:27:31 10° ENE
HJ-1C 3.7 18:20:42 10° SE 18:23:52 43° ENE 18:27:02 10° N
SL-16 R/B 2.7 18:19:17 10° S 18:24:27 37° ESE 18:29:38 10° NE
Aureole 2 Rocket 3.0 18:23:43 10° N 18:25:51 22° ENE 18:27:36 12° ESE
PSLV R/B 4.2 18:22:45 10° NNE 18:26:43 44° E 18:30:37 10° S
Cosmos 2263 Rocket 2.7 18:21:19 10° NW 18:26:50 65° WSW 18:32:20 10° SSE
Nadezhda 3 Rocket 4.2 18:20:54 10° N 18:27:08 53° ENE 18:33:20 10° SSE
USA 308 2.9 18:23:13 10° WSW 18:27:31 89° NNW 18:31:41 11° ENE
SL-4 R/B 1.6 18:24:48 10° W 18:28:24 85° N 18:31:26 13° E
Cosmos 1867 3.7 18:23:35 10° SW 18:29:02 82° NW 18:34:34 10° NE
Cosmos 1862 Rocket 3.7 18:25:49 10° N 18:30:15 55° ENE 18:34:39 10° SSE
Cosmos 1666 Rocket 3.5 18:26:47 10° S 18:31:03 58° E 18:35:18 10° NNE
Cosmos 1437 3.5 18:28:22 10° NNW 18:31:12 51° W 18:34:01 10° S
Cosmos 1515 3.8 18:28:31 10° N 18:32:16 50° ENE 18:36:00 10° SSE
Cosmos 2154 Rocket 4.2 18:28:49 10° SSE 18:34:42 47° E 18:40:36 10° NNE
ARGOS 3.1 18:30:16 10° SSE 18:35:41 72° ENE 18:41:07 10° NNW
CZ-4B R/B 1.7 18:33:52 10° N 18:36:53 60° WNW 18:39:53 10° SSW
Meteor 1-20 Rocket 4.1 18:31:38 10° S 18:37:00 64° E 18:42:27 10° NNE
Cosmos 2074 Rocket 4.0 18:30:47 10° S 18:37:01 72° E 18:43:16 10° NNE
MOS 1 Rocket 4.1 18:33:37 10° N 18:38:29 62° WNW 18:43:37 10° SSW
Sich 1 3.5 18:39:32 10° SSW 18:43:55 68° WNW 18:48:21 10° N
Cosmos 44 Rocket 3.5 18:38:46 10° NW 18:44:03 89° ENE 18:49:17 10° SE
CZ-2C R/B 3.0 18:39:09 10° NNE 18:44:27 44° E 18:49:35 10° S
GP-B 3.7 18:42:21 10° SE 18:46:23 36° E 18:50:27 10° NNE
YAOGAN 1 2.9 18:42:50 10° S 18:47:09 69° WSW 18:51:29 10° NNW
COSMO-SKYMED 1 3.6 18:44:58 10° N 18:49:12 51° WNW 18:53:24 10° SW
FALCON 9 DEB 3.0 18:47:16 10° W 18:50:28 71° N 18:52:28 21° ENE
FALCON 9 DEB 3.1 18:48:19 10° W 18:51:29 67° N 18:53:22 22° ENE
Cosmos 2184 Rocket 4.0 18:49:12 10° S 18:55:21 90° WSW 19:01:38 10° N
Cosmos 1271 Rocket 4.2 18:55:54 10° NNW 18:59:24 38° W 19:02:53 10° SSW
SAR-Lupe-4 3.4 18:56:19 10° NNE 18:59:56 76° ESE 19:03:30 10° S
Meteor 1-19 Rocket 4.4 18:55:44 10° NNW 19:01:45 87° W 19:07:36 10° S
ERBS 2.1 18:59:29 10° SW 19:02:47 71° SE 19:04:26 27° ENE
Cosmos 1844 Rocket 2.7 18:57:16 10° NNW 19:02:50 63° NE 19:07:39 14° SE
CSL-04 Debris 4.3 18:58:16 10° SSE 19:03:42 81° WSW 19:09:13 10° NNW
Cosmos 1461 3.1 18:59:21 10° SW 19:04:07 87° SE 19:08:52 10° NE
CSL-04 Rocket 3.8 18:59:16 10° SSE 19:04:49 84° WSW 19:10:23 10° NNW
USA 186 1.9 19:05:51 32° NE 19:05:51 32° NE 19:07:39 10° N
Cosmos 1844 3.8 19:02:23 10° NNW 19:08:08 60° NE 19:12:26 18° SE
DMSP B5D2-2 4.3 19:03:08 10° NNE 19:08:11 45° E 19:13:10 10° S
Cosmos 1633 Rocket 3.3 19:04:30 10° SSW 19:08:56 73° WNW 19:13:23 10° N
SJ 16-02 3.0 19:06:12 10° N 19:09:04 17° NE 19:09:26 17° NE
ERS-2 2.2 19:06:06 10° NNE 19:09:46 79° WNW 19:13:25 10° SSW
Abrixas rocket 2.5 19:07:47 10° SW 19:10:03 31° SSE 19:10:04 31° SSE
SL-8 Rocket 4.4 19:05:16 10° SSE 19:10:55 38° E 19:16:34 10° NNE
Cosmos 1602 3.9 19:07:48 10° SSW 19:11:42 74° WNW 19:15:38 10° N
H-2A R/B 3.3 19:06:37 10° S 19:11:51 46° W 19:17:06 10° NNW
Cosmos 1992 Rocket 4.0 19:07:39 10° S 19:12:47 59° ESE 19:17:56 10° NNE
Helios 1A Rocket 3.6 19:10:11 10° S 19:14:11 57° WSW 19:18:11 10° NNW
Okean 1-7 3.1 19:10:05 10° N 19:14:24 52° ENE 19:17:29 18° SSE
Cosmos 2278 Rocket 3.5 19:09:51 10° NNW 19:14:27 24° NE 19:16:23 20° ENE
Meteor 2-4 Rocket 3.7 19:08:46 10° N 19:14:35 74° ENE 19:20:29 10° SSE
Cosmos 968 Rocket 4.4 19:10:37 10° NNW 19:15:42 50° WSW 19:20:46 10° S
Cosmos 2360 Rocket 2.5 19:11:20 10° S 19:16:36 43° ESE 19:21:56 10° NE
SAR-Lupe-1 4.5 19:15:21 10° N 19:18:56 65° WNW 19:22:30 10° SSW
Okean-O 4.3 19:15:22 10° SSW 19:19:28 36° W 19:23:36 10° NNW
Cosmos 2333 Rocket 4.1 19:15:54 10° SSE 19:16:26 12° SE 19:16:26 12° SE
ASTEX 1 3.9 19:16:14 10° NNE 19:20:43 35° E 19:22:26 27° SE
Cosmos 2366 rocket 4.4 19:18:53 10° SSE 19:24:39 39° E 19:30:28 10° NNE
USA 234 3.4 19:21:26 20° ENE 19:25:55 51° SE 19:32:15 10° SW
SeaSat 1 2.4 19:22:02 10° NNE 19:27:01 89° ESE 19:31:58 10° SSW
Cosmos 2341 Rocket 4.0 19:20:51 10° S 19:27:03 61° E 19:33:13 10° NNE
Meteor 2-9 4.5 19:22:38 10° S 19:28:02 70° E 19:33:24 10° NNE
Cosmos 1500 3.0 19:24:19 10° S 19:28:03 82° E 19:31:48 10° NNE
Cosmos 1689 Rocket 3.8 19:26:55 10° N 19:29:34 34° WNW 19:32:13 10° SW
OBJECT-B 0.8 19:31:23 59° ENE 19:31:23 59° ENE 19:34:31 10° N
Cosmos 1980 Rocket 3.9 19:27:49 10° WSW 19:32:52 32° NW 19:38:00 10° NNE
MOS 1 4.2 19:29:31 17° SSE 19:33:57 68° ENE 19:39:37 10° NNW
Cosmos 1354 Rocket 4.2 19:30:13 10° NNW 19:35:29 73° WSW 19:40:08 13° SSE
SJ-6B 2.8 19:34:25 24° SSE 19:36:50 85° ENE 19:40:55 10° NNW
Meteor 1-14 Rocket 4.2 19:33:07 10° SSW 19:38:42 86° WNW 19:44:17 10° NNE
SPOT 3 Rocket 4.0 19:39:57 39° E 19:40:53 42° ENE 19:45:48 10° N
Cosmos 1727 Rocket 4.2 19:35:46 10° N 19:41:44 47° ENE 19:43:43 36° ESE
FALCON 9 DEB 3.2 19:38:53 10° W 19:41:57 60° N 19:41:57 60° N
Cosmos 1943 Rocket 4.2 19:39:37 10° N 19:42:29 14° NNE 19:44:13 12° NE
Meteor 1-11 Rocket 4.0 19:37:53 10° SSE 19:43:17 44° E 19:48:34 10° NNE
CZ-4 R/B 4.4 19:42:14 10° SW 19:44:35 15° W 19:46:58 10° NW
Cosmos 2322 Rocket 2.3 19:39:28 10° SW 19:45:05 78° WNW 19:50:46 10° NNE
Cosmos 1470 Rocket 4.3 19:41:49 10° SSW 19:46:11 54° WNW 19:50:35 10° N
USA 305 3.2 19:42:38 10° W 19:46:53 60° N 19:47:48 47° NE
Cosmos 1777 Rocket 3.9 19:42:58 10° NNW 19:48:15 72° ENE 19:49:56 43° SE
Cosmos 2218 Rocket 4.0 19:42:27 10° S 19:48:43 59° E 19:55:00 10° NNE
FALCON 9 DEB 3.7 19:46:49 10° WNW 19:50:02 49° SW 19:50:02 49° SW
IRS-1A Rocket 4.2 19:46:55 18° SSE 19:51:16 89° WSW 19:56:52 10° NNW
Terra 4.1 19:55:32 11° NNE 19:55:32 11° NNE 19:56:10 10° NNE
Meteor 1-13 Rocket 4.2 19:48:09 10° NNW 19:54:09 83° ENE 19:57:42 26° SSE
Cosmos 1703 Rocket 4.0 19:51:20 10° NNW 19:55:42 60° W 19:58:55 17° S
FALCON 9 DEB 3.9 19:53:07 10° WNW 19:55:35 46° NW 19:55:35 46° NW
USA 307 3.1 19:52:59 10° W 19:57:14 59° N 19:57:44 54° NNE
ATLAS CENTAUR R/B 2.9 19:54:45 10° SSW 19:56:04 21° SSW 19:56:04 21° SSW
Aureole 2 Rocket 4.5 19:56:45 10° WNW 19:58:27 16° WSW 19:58:50 16° WSW
SME Rocket 4.3 19:49:17 10° NNE 19:58:31 77° ESE 20:04:21 10° S
Ariane Rocket 3.0 19:56:50 25° S 19:59:50 79° WSW 20:04:58 10° NNW
Meteor 2-20 4.5 19:55:06 10° N 20:01:07 56° ENE 20:02:17 49° ESE
USA 306 3.1 19:57:14 10° W 20:01:28 59° N 20:01:47 57° NNE
Okean 3 3.3 19:58:31 10° N 20:02:38 79° NE 20:02:38 79° NE
Resurs 01 Rocket 2.0 20:03:37 50° NE 20:03:37 50° NE 20:07:17 10° N
Cosmos 1933 Rocket 4.5 20:03:06 10° SSW 20:07:19 48° WNW 20:11:35 10° N
USA 308 3.2 20:03:31 10° W 20:07:45 59° N 20:07:49 59° N
SL-4 R/B 2.6 20:04:28 10° W 20:07:00 44° W 20:07:00 44° W
SL-16 R/B 3.1 20:02:59 10° SW 20:08:28 47° NW 20:13:58 10° NNE
Cosmos 1066 Rocket 4.1 20:03:01 10° N 20:08:43 79° ENE 20:10:17 50° SSE
Gbstr 26 Del rocket 3.4 20:04:27 10° W 20:09:13 84° N 20:10:04 64° ENE
Cosmos 864 Rocket 4.3 20:04:22 10° S 20:10:30 76° E 20:16:43 10° NNE
Cosmos 1959 Rocket 4.3 20:09:54 10° S 20:16:00 85° E 20:22:10 10° N
Cosmos 2369 Rocket 4.2 20:16:58 10° N 20:19:54 14° NNE 20:20:37 14° NNE
CZ-2C R/B 4.2 20:19:38 10° N 20:24:38 36° WNW 20:29:32 10° SW
Landsat 7 4.4 20:29:51 48° N 20:29:51 48° N 20:33:22 10° N
Resurs 1-3 4.4 20:34:34 47° WSW 20:34:46 47° W 20:39:02 10° NNW
Cosmos 1844 Rocket 4.5 20:41:47 10° NW 20:46:19 26° WSW 20:49:23 16° SSW
SJ 16-02 2.7 20:43:51 10° NNW 20:46:26 35° NNW 20:46:26 35° NNW
BREEZE-M DEB (TANK) 4.3 20:51:54 10° W 20:53:09 26° W 20:53:09 26° W
Meteor 2-20 Rocket 4.4 20:51:08 10° NNW 20:56:56 78° NW 20:56:56 78° NW
Cosmos 2278 Rocket 2.6 20:53:36 10° NNW 20:58:15 61° NNW 20:58:15 61° NNW
Cosmos 2360 Rocket 3.3 20:55:18 10° WSW 21:00:39 42° NW 21:06:04 10° NNE
Cosmos 2333 Rocket 4.4 20:58:06 10° SW 21:10:33 - NNE 20:58:40 13° SW
OBJECT-B 4.3 21:04:28 10° WNW 21:04:28 10° WNW 21:04:43 10° WNW
USA 234 3.3 21:08:47 73° N 21:09:11 75° NNW 21:15:43 10° WSW
USA 281 3.9 21:29:16 46° N 21:29:16 46° N 21:34:06 10° NNW
Cosmos 1943 Rocket 3.8 21:22:42 10° NNW 21:25:45 27° N 21:25:45 27° N
Cosmos 2322 Rocket 4.4 21:25:49 10° W 21:30:05 22° NW 21:34:23 10° NNE
Terra 4.2 21:34:25 18° N 21:34:25 18° N 21:35:41 10° N
Resurs 01 Rocket 4.2 21:41:10 17° WNW 21:41:10 17° WNW 21:43:01 10° NW
Cosmos 2369 Rocket 4.2 22:00:17 10° NNW 22:02:24 22° N 22:02:24 22° N
